Location: Ústí nad Labem
(50.6611°N, 14.0531°E)
Time: 23:19:21
(UTC+02:00)

Vanguard 1 - Visible Passes

Search period start: 12 April 2024 00:00
Search period end: 22 April 2024 00:00
Orbit: 653 x 3825 km, 34.2° (Epoch: 11 April)

Date Brightness Start Highest point End Pass type
(mag) Time Alt. Az. Time Alt. Az. Time Alt. Az.
13 Apr 13.8 04:59:13 10° S 05:06:02 13° SSE 05:11:42 10° SE visible
14 Apr 13.6 05:15:49 10° S 05:26:09 18° SSE 05:33:58 10° ESE visible
15 Apr 13.4 05:33:44 10° SSW 05:46:17 22° SSE 05:55:10 10° ESE visible
16 Apr 13.9 03:38:23 10° SSE 03:44:36 12° SE 03:50:05 10° ESE visible
17 Apr 13.7 03:53:40 10° S 04:04:37 17° SE 04:13:26 10° ESE visible
18 Apr 13.6 04:10:54 10° S 04:24:39 22° SSE 04:35:05 10° ESE visible
19 Apr 13.4 04:29:03 10° SSW 04:44:44 27° SSE 04:56:05 10° ESE visible
20 Apr 13.9 02:32:55 10° SSE 02:42:41 15° SE 02:51:19 10° ESE visible
20 Apr 13.3 04:47:49 10° SSW 05:04:51 31° SSE 05:16:44 10° ESE visible
21 Apr 13.7 02:51:38 13° S 03:02:34 20° SE 03:13:51 10° ESE visible
21 Apr 13.1 05:07:00 10° SW 05:24:59 35° SSE 05:37:08 10° ESE visible
